Terminal Aerodrome Forecast
Issued by NWS North Platte, NE

Home | Current Version | Previous Version | Text Only | Print | Product List | Glossary Off
Versions: 1 2 3 4 5 6 7 8 9 10 11 12 13 14

001
FTUS43 KLBF 191844 RRA
TAFVTN
TAF
KVTN 191844Z 1919/2018 21006KT P6SM FEW250
     FM201100 25006KT P6SM FEW200=

USA.gov is the U.S. government's official web portal to all federal, state and local government web resources and services.